When you browse on this site, cookies collect data to enhance your experience and personalize the content and advertising you see.
Visit our Privacy Policy to learn more. By continuing to use the site, you agree to this use of cookies and data.
  • In Hungary
  • List of Countries
  • For 7 days
  • Water Temperature
  • Satellite Maps
  • Weather Map
  • News
  • Weather Widgets
  • user-avatar
    Login

    Hourly Weather Kolyvan'

    Today, 14 December, Friday

    Time Temperature Precipitation Wind Pressure Humidity
    00:00 -13°C° 0 mm 3 mps 730 mmHg 91%
    01:00 -13°C° 0 mm 3 mps 729 mmHg 91%
    02:00 -12°C° 0 mm 2 mps 729 mmHg 91%
    03:00 -12°C° 0 mm 2 mps 729 mmHg 91%
    04:00 -12°C° 0 mm 2 mps 729 mmHg 91%
    05:00 -13°C° 0 mm 2 mps 729 mmHg 90%
    06:00 -13°C° 0 mm 2 mps 729 mmHg 90%
    07:00 -13°C° 0 mm 2 mps 729 mmHg 89%
    08:00 -14°C° 0 mm 3 mps 729 mmHg 88%
    09:00 -13°C° 0 mm 3 mps 729 mmHg 87%
    10:00 -12°C° 0 mm 3 mps 728 mmHg 85%
    11:00 -10°C° 0 mm 3 mps 728 mmHg 83%
    12:00 -9°C° 0 mm 4 mps 728 mmHg 81%
    13:00 -9°C° 0 mm 4 mps 728 mmHg 82%
    14:00 -9°C° 0 mm 4 mps 728 mmHg 82%
    15:00 -8°C° 0 mm 4 mps 728 mmHg 83%
    16:00 -8°C° 0.1 mm 4 mps 728 mmHg 85%
    17:00 -9°C° 0.1 mm 4 mps 728 mmHg 86%
    18:00 -9°C° 0.1 mm 4 mps 728 mmHg 88%
    19:00 -9°C° 0.2 mm 4 mps 728 mmHg 89%
    20:00 -8°C° 0.2 mm 4 mps 728 mmHg 89%
    21:00 -8°C° 0.2 mm 4 mps 728 mmHg 90%
    22:00 -8°C° 0.1 mm 4 mps 728 mmHg 90%
    23:00 -8°C° 0.1 mm 3 mps 728 mmHg 89%

    Tomorrow, 15 December, Saturday

    Time Temperature Precipitation Wind Pressure Humidity
    00:00 -8°C° 0.1 mm 3 mps 729 mmHg 89%
    01:00 -8°C° 0.1 mm 3 mps 728 mmHg 88%
    02:00 -9°C° 0.1 mm 3 mps 728 mmHg 88%
    03:00 -9°C° 0.1 mm 3 mps 728 mmHg 87%
    04:00 -9°C° 0 mm 3 mps 728 mmHg 87%
    05:00 -10°C° 0 mm 3 mps 728 mmHg 86%
    06:00 -10°C° 0 mm 3 mps 728 mmHg 86%
    07:00 -12°C° 0 mm 3 mps 729 mmHg 85%
    08:00 -12°C° 0 mm 3 mps 729 mmHg 85%
    09:00 -12°C° 0 mm 3 mps 729 mmHg 84%
    10:00 -10°C° 0 mm 3 mps 729 mmHg 83%
    11:00 -8°C° 0 mm 3 mps 728 mmHg 81%
    12:00 -7°C° 0 mm 3 mps 728 mmHg 79%
    13:00 -7°C° 0 mm 3 mps 728 mmHg 79%
    14:00 -7°C° 0 mm 3 mps 728 mmHg 79%
    15:00 -7°C° 0 mm 3 mps 727 mmHg 78%
    16:00 -7°C° 0 mm 3 mps 727 mmHg 78%
    17:00 -8°C° 0 mm 3 mps 727 mmHg 78%
    18:00 -9°C° 0 mm 3 mps 727 mmHg 77%
    19:00 -9°C° 0 mm 3 mps 727 mmHg 76%
    20:00 -9°C° 0 mm 3 mps 727 mmHg 75%
    21:00 -8°C° 0 mm 3 mps 726 mmHg 74%
    22:00 -8°C° 0 mm 3 mps 726 mmHg 73%
    23:00 -8°C° 0 mm 4 mps 726 mmHg 73%

    Day after tomorrow, 16 December, Sunday

    Time Temperature Precipitation Wind Pressure Humidity
    00:00 -8°C° 0 mm 4 mps 725 mmHg 72%
    01:00 -7°C° 0 mm 4 mps 725 mmHg 73%
    02:00 -5°C° 0 mm 4 mps 725 mmHg 75%
    03:00 -6°C° 0 mm 5 mps 725 mmHg 77%
    04:00 -5°C° 0 mm 4 mps 725 mmHg 77%
    05:00 -5°C° 0 mm 4 mps 725 mmHg 78%
    06:00 -5°C° 0 mm 4 mps 724 mmHg 79%
    07:00 -5°C° 0 mm 4 mps 724 mmHg 79%
    08:00 -7°C° 0 mm 4 mps 724 mmHg 79%
    09:00 -7°C° 0 mm 4 mps 724 mmHg 79%
    10:00 -7°C° 0 mm 4 mps 724 mmHg 78%
    11:00 -7°C° 0 mm 5 mps 724 mmHg 77%
    12:00 -6°C° 0 mm 5 mps 724 mmHg 76%
    13:00 -7°C° 0 mm 5 mps 724 mmHg 78%
    14:00 -7°C° 0 mm 5 mps 724 mmHg 79%
    15:00 -7°C° 0 mm 4 mps 724 mmHg 81%
    16:00 -7°C° 0.1 mm 4 mps 724 mmHg 84%
    17:00 -7°C° 0.1 mm 4 mps 724 mmHg 86%
    18:00 -8°C° 0.1 mm 4 mps 724 mmHg 89%
    19:00 -8°C° 0.1 mm 4 mps 724 mmHg 90%
    20:00 -7°C° 0.1 mm 3 mps 724 mmHg 92%
    21:00 -7°C° 0.1 mm 3 mps 724 mmHg 93%
    22:00 -6°C° 0.4 mm 2 mps 724 mmHg 94%
    23:00 -6°C° 0.4 mm 2 mps 724 mmHg 95%

    17 December, Monday

    Time Temperature Precipitation Wind Pressure Humidity
    00:00 -6°C° 0.4 mm 2 mps 724 mmHg 97%
    01:00 -6°C° 0.5 mm 2 mps 724 mmHg 97%
    02:00 -6°C° 0.5 mm 2 mps 724 mmHg 97%
    03:00 -7°C° 0.5 mm 2 mps 724 mmHg 97%
    04:00 -7°C° 0.4 mm 2 mps 725 mmHg 97%
    05:00 -7°C° 0.4 mm 2 mps 725 mmHg 97%
    06:00 -9°C° 0.4 mm 3 mps 726 mmHg 96%
    07:00 -9°C° 0.3 mm 3 mps 726 mmHg 96%
    08:00 -10°C° 0.3 mm 3 mps 726 mmHg 96%
    09:00 -10°C° 0.3 mm 3 mps 727 mmHg 96%
    10:00 -10°C° 0.2 mm 3 mps 727 mmHg 95%
    11:00 -10°C° 0.2 mm 3 mps 728 mmHg 94%
    12:00 -11°C° 0.2 mm 4 mps 728 mmHg 93%
    13:00 -11°C° 0.1 mm 4 mps 728 mmHg 93%
    14:00 -11°C° 0.1 mm 4 mps 728 mmHg 92%
    15:00 -11°C° 0.1 mm 4 mps 728 mmHg 92%
    16:00 -10°C° 0.1 mm 3 mps 729 mmHg 93%
    17:00 -10°C° 0.1 mm 3 mps 729 mmHg 94%
    18:00 -12°C° 0.1 mm 3 mps 730 mmHg 94%
    19:00 -10°C° 0.1 mm 2 mps 730 mmHg 95%
    20:00 -10°C° 0.1 mm 2 mps 730 mmHg 95%
    21:00 -10°C° 0.1 mm 2 mps 731 mmHg 95%
    22:00 -12°C° 0.1 mm 2 mps 731 mmHg 95%
    23:00 -12°C° 0.1 mm 2 mps 731 mmHg 95%

    18 December, Tuesday

    Time Temperature Precipitation Wind Pressure Humidity
    00:00 -13°C° 0.1 mm 2 mps 731 mmHg 95%
    01:00 -13°C° 0 mm 2 mps 731 mmHg 95%
    02:00 -13°C° 0 mm 2 mps 731 mmHg 95%
    03:00 -14°C° 0 mm 2 mps 731 mmHg 95%
    04:00 -14°C° 0 mm 2 mps 731 mmHg 94%
    05:00 -14°C° 0 mm 2 mps 731 mmHg 94%
    06:00 -14°C° 0 mm 2 mps 731 mmHg 94%
    07:00 -14°C° 0 mm 2 mps 731 mmHg 94%
    08:00 -15°C° 0 mm 2 mps 731 mmHg 94%
    09:00 -15°C° 0 mm 2 mps 731 mmHg 94%
    10:00 -14°C° 0 mm 2 mps 731 mmHg 93%
    11:00 -13°C° 0 mm 2 mps 731 mmHg 93%
    12:00 -12°C° 0 mm 2 mps 731 mmHg 93%
    13:00 -12°C° 0 mm 2 mps 730 mmHg 93%
    14:00 -12°C° 0 mm 2 mps 730 mmHg 93%
    15:00 -12°C° 0 mm 2 mps 730 mmHg 93%
    16:00 -14°C° 0 mm 2 mps 730 mmHg 94%
    17:00 -15°C° 0 mm 2 mps 730 mmHg 94%
    18:00 -16°C° 0 mm 2 mps 730 mmHg 94%
    19:00 -16°C° 0 mm 2 mps 729 mmHg 94%
    20:00 -16°C° 0 mm 2 mps 729 mmHg 93%
    21:00 -17°C° 0 mm 2 mps 729 mmHg 93%
    22:00 -17°C° 0 mm 2 mps 729 mmHg 92%
    23:00 -17°C° 0 mm 2 mps 729 mmHg 92%

    19 December, Wednesday

    Time Temperature Precipitation Wind Pressure Humidity
    00:00 -18°C° 0 mm 3 mps 729 mmHg 92%
    01:00 -18°C° 0 mm 3 mps 728 mmHg 92%
    02:00 -18°C° 0 mm 3 mps 728 mmHg 92%
    03:00 -18°C° 0 mm 3 mps 728 mmHg 91%
    04:00 -17°C° 0 mm 3 mps 728 mmHg 91%
    05:00 -17°C° 0 mm 3 mps 728 mmHg 91%
    06:00 -17°C° 0 mm 3 mps 727 mmHg 91%
    07:00 -17°C° 0 mm 3 mps 727 mmHg 90%
    08:00 -17°C° 0 mm 3 mps 727 mmHg 90%
    09:00 -18°C° 0 mm 4 mps 727 mmHg 90%
    10:00 -17°C° 0 mm 4 mps 727 mmHg 89%
    11:00 -16°C° 0 mm 4 mps 726 mmHg 88%
    12:00 -15°C° 0 mm 5 mps 726 mmHg 88%
    13:00 -15°C° 0 mm 5 mps 726 mmHg 88%
    14:00 -14°C° 0 mm 5 mps 725 mmHg 87%
    15:00 -14°C° 0 mm 5 mps 725 mmHg 87%
    16:00 -15°C° 0 mm 5 mps 725 mmHg 87%
    17:00 -15°C° 0 mm 5 mps 725 mmHg 87%
    18:00 -15°C° 0 mm 5 mps 725 mmHg 88%
    19:00 -15°C° 0 mm 5 mps 725 mmHg 88%
    20:00 -15°C° 0 mm 5 mps 725 mmHg 88%
    21:00 -15°C° 0 mm 5 mps 725 mmHg 88%
    22:00 -15°C° 0.1 mm 5 mps 725 mmHg 89%
    23:00 -16°C° 0.1 mm 6 mps 725 mmHg 89%
    Show more